Theta_e
356 356 359 362 361 363 363 364 366 366 367 367 367 366 366 366 367 367 367 368 368 369 369 369 370 370 371 371 371 371 371 371 371 370 370 370 370 370 370 370 369 369 368 368 368 367 367 367 367 368 367 367 367 367 367 366 367 366 366 365 364 364 364 364 365 365 366 366 365 364 365 365 365 364 363 362 362 362 362 363 362 359 359 360 362
355 357 359 360 365 364 363 364 365 366 366 367 367 367 367 367 367 368 367 368 368 368 369 369 370 370 371 371 370 371 371 371 371 371 371 369 370 370 370 370 369 369 369 369 368 368 367 368 367 367 367 367 366 366 366 366 366 366 366 365 362 362 363 363 363 364 365 366 365 365 366 365 365 364 364 362 362 361 363 363 363 359 357 361 362
357 358 360 361 364 364 364 364 366 366 366 367 367 367 367 367 367 367 367 367 368 369 369 370 370 370 371 371 370 371 370 370 370 370 371 371 370 369 369 369 369 369 369 369 369 367 367 368 367 367 367 367 366 366 366 367 367 366 366 366 366 363 362 362 362 363 364 365 365 365 365 365 364 364 363 363 363 363 364 363 363 363 357 362 363
356 358 360 362 364 364 364 365 366 366 366 367 367 367 367 367 367 367 367 368 368 368 369 369 370 370 370 370 371 371 370 370 370 370 370 370 371 370 370 369 369 369 369 369 369 369 368 368 368 368 367 366 366 366 366 366 366 366 366 367 366 366 366 366 365 363 362 362 364 363 364 357 362 364 363 362 361 361 364 364 364 363 363 362 362
357 359 360 359 359 364 364 364 366 366 367 367 366 366 366 367 367 367 368 368 368 368 369 369 370 370 370 370 371 370 370 370 369 369 370 370 369 370 370 370 369 369 369 369 369 368 368 368 368 368 367 366 366 366 366 366 366 366 366 366 367 367 366 365 365 364 362 363 364 362 352 353 357 363 363 361 362 364 365 364 364 363 363 363 362
357 359 360 360 360 362 365 364 366 367 367 367 366 366 367 366 367 367 367 368 369 369 370 370 370 370 370 370 371 370 370 370 370 369 369 369 369 369 369 369 369 369 369 369 369 368 368 368 368 368 368 367 366 366 365 366 367 366 367 366 366 367 366 365 365 365 364 364 363 356 352 352 357 359 362 362 362 364 364 364 364 363 362 362 361
358 359 360 360 361 363 365 365 366 366 367 366 366 366 367 367 367 367 367 368 369 369 370 370 370 369 370 370 370 370 370 369 369 369 369 368 368 368 369 369 369 368 368 368 368 368 368 368 367 367 367 367 366 366 366 366 366 366 366 366 365 366 366 366 365 363 362 359 351 352 352 352 355 357 363 362 362 363 363 362 363 362 361 361 361
359 360 360 360 361 364 365 364 365 366 366 366 366 367 366 367 367 367 367 368 369 370 370 369 369 368 369 369 369 369 369 369 369 368 368 368 368 368 368 368 368 368 367 367 367 368 367 367 367 366 366 366 366 366 366 365 365 366 366 366 365 366 365 364 363 362 361 352 353 351 353 353 353 355 363 363 362 363 363 363 362 361 361 361 360
357 359 360 360 361 366 366 366 365 367 366 366 366 367 366 366 367 367 367 368 369 368 369 368 368 368 368 368 368 369 368 368 369 368 368 368 367 367 367 367 367 367 367 367 367 367 367 367 367 366 366 365 365 365 365 365 365 365 366 366 365 365 363 362 362 361 356 354 352 351 354 353 354 353 358 359 362 363 363 362 362 362 361 361 361
357 359 360 360 361 367 366 366 365 366 366 366 366 366 366 366 366 367 367 368 369 369 369 368 367 367 368 368 368 368 368 368 367 367 367 367 367 366 366 366 366 366 367 367 367 366 366 366 367 366 366 365 365 365 365 365 364 365 365 364 363 362 361 361 360 359 352 351 353 354 356 364 355 356 359 359 360 360 362 362 362 361 360 361 361
357 359 360 360 362 366 366 366 366 366 366 367 366 366 366 365 366 366 368 368 368 368 368 368 368 367 368 368 368 368 367 367 367 366 366 366 365 365 365 364 364 365 364 365 366 366 366 365 365 365 365 365 364 364 364 364 363 363 363 363 362 362 361 361 357 350 351 351 351 352 358 361 355 354 360 359 360 360 362 362 362 362 362 362 361
358 359 360 361 366 367 366 366 366 364 366 366 366 366 365 365 366 366 367 368 368 368 369 368 367 367 368 368 368 368 367 367 366 366 366 366 366 366 366 366 366 365 365 365 365 365 365 365 364 364 364 364 363 363 362 363 363 363 364 363 361 361 361 361 353 351 351 351 351 353 355 359 356 359 360 359 360 361 362 363 361 361 362 362 363
358 359 360 361 362 367 367 366 366 365 365 366 365 365 366 366 367 367 367 367 367 369 369 368 368 367 368 368 367 367 367 367 366 366 366 366 366 366 366 367 366 366 366 366 365 364 364 364 364 364 363 363 363 362 361 362 362 364 362 361 360 361 360 360 350 349 350 352 351 354 353 352 356 363 361 360 361 361 362 362 361 361 362 363 363
357 358 360 361 362 367 367 367 366 365 365 366 365 366 366 367 367 367 366 366 366 367 368 368 368 367 367 367 367 367 367 366 366 366 366 366 365 366 366 366 366 365 366 365 365 364 364 364 363 363 363 363 362 361 362 361 363 362 360 359 360 360 361 358 358 351 351 352 353 352 351 356 355 361 361 361 362 362 361 361 361 362 363 363 363
357 358 360 361 363 363 368 367 366 365 365 365 365 365 366 366 365 366 366 366 367 367 367 367 367 367 366 366 366 366 366 366 366 366 365 365 365 364 364 365 366 366 366 365 364 364 364 363 363 363 363 363 361 362 361 361 363 361 359 358 358 359 360 352 353 350 351 356 353 356 351 352 358 360 361 361 362 362 360 361 362 361 363 362 363
359 359 361 360 361 362 363 366 366 365 365 365 364 365 364 365 364 365 365 366 367 367 366 366 366 366 366 365 366 366 366 366 365 365 365 364 364 364 364 364 365 365 365 365 364 364 363 364 364 363 362 362 362 362 362 361 361 361 358 359 360 360 360 359 348 347 348 351 353 356 352 354 358 360 361 360 361 362 359 361 362 363 363 361 363
359 360 359 359 360 361 361 362 364 364 366 365 365 364 364 364 363 364 363 364 365 365 365 365 365 365 365 365 366 366 366 366 366 365 365 364 364 364 364 364 364 364 365 364 363 364 363 363 364 363 361 362 363 362 362 362 362 362 358 358 361 361 361 361 348 347 348 354 357 354 352 354 358 360 361 361 361 364 362 360 361 362 362 362 362
359 359 358 358 358 359 361 361 361 362 360 363 365 364 364 364 363 364 364 364 365 366 366 365 365 365 365 365 365 365 366 366 366 365 365 365 363 363 362 363 364 364 365 364 364 364 364 364 363 362 362 363 364 364 363 364 363 363 361 360 362 362 363 362 350 350 350 357 353 355 354 361 359 360 361 361 361 362 363 361 361 362 361 362 362
357 357 358 357 357 359 360 360 361 360 359 359 359 360 363 364 364 364 364 364 364 365 365 365 365 366 366 365 365 365 365 365 366 365 365 366 365 363 362 363 363 365 365 364 364 364 365 364 363 362 363 364 365 364 364 364 364 363 364 363 363 364 364 362 354 350 355 357 352 352 350 359 361 362 363 361 361 363 362 362 361 360 360 360 361
355 356 356 356 357 357 358 359 358 358 358 358 359 359 362 363 362 362 364 364 364 363 365 365 365 365 364 364 364 364 363 362 365 363 365 366 365 363 362 363 364 365 365 365 365 363 363 363 363 363 364 365 365 364 364 364 363 364 364 363 363 362 357 356 354 354 353 353 356 350 354 358 361 364 365 362 362 362 363 363 360 360 358 356 359
355 354 355 355 356 356 356 356 356 356 357 357 358 359 361 364 363 364 364 364 363 364 364 365 363 363 364 363 363 363 359 359 360 361 365 364 365 364 363 363 364 365 365 366 364 364 363 362 364 365 365 365 364 364 363 363 363 363 363 361 362 358 358 358 357 356 356 354 360 350 357 360 361 362 363 364 363 362 362 362 361 360 358 357 356
351 352 354 355 355 355 355 355 355 355 356 357 358 359 361 363 359 359 360 361 363 363 362 359 362 359 364 361 360 361 356 355 357 364 361 363 363 365 365 365 365 366 366 366 365 364 363 363 365 365 364 364 365 361 360 366 365 365 365 363 359 357 358 358 358 356 358 354 358 354 359 361 362 362 362 362 364 363 363 363 363 361 359 358 357
349 351 352 354 354 355 355 355 355 355 356 356 357 358 359 358 357 357 360 363 363 363 358 361 354 355 357 358 360 358 357 357 359 362 363 364 364 365 366 366 366 367 367 366 365 364 364 364 366 366 366 366 362 357 356 356 356 363 365 361 355 358 358 360 358 355 354 354 356 359 361 362 362 363 362 363 362 364 363 364 363 362 362 360 359
350 351 352 355 355 354 354 355 355 356 356 356 356 356 355 355 355 356 356 356 356 357 355 355 354 354 356 357 357 358 358 357 364 365 365 363 362 366 367 367 367 368 367 364 364 364 365 366 368 369 367 366 357 356 357 357 356 356 356 357 354 355 357 357 355 353 353 354 355 360 362 363 363 363 363 364 364 364 364 364 364 362 363 363 361
351 352 353 354 354 354 354 355 356 356 355 356 355 354 355 355 355 355 354 353 354 354 355 355 354 354 354 357 357 358 358 356 357 358 359 357 356 357 360 360 359 358 365 357 359 360 362 359 360 365 359 359 357 357 357 356 357 357 356 357 355 354 355 356 353 352 351 352 354 358 360 362 361 361 361 362 364 364 365 365 365 364 364 364 363
352 351 351 353 354 355 354 354 355 356 355 355 354 357 356 353 353 353 354 353 354 353 354 355 355 355 354 356 358 357 357 357 356 356 356 355 356 355 357 357 355 357 362 359 357 357 356 357 358 358 359 359 359 358 358 360 356 356 353 351 352 352 351 353 353 352 351 350 353 358 361 361 360 361 361 362 360 362 364 365 365 364 364 363 363
351 350 352 353 354 354 354 354 354 355 355 355 355 357 353 354 353 354 353 351 353 353 352 354 355 354 355 358 356 355 356 355 355 354 355 355 355 355 355 356 356 356 358 357 357 357 356 356 357 357 359 360 359 359 358 359 358 354 349 351 351 352 352 353 354 353 352 351 353 357 361 358 358 360 361 363 364 362 362 365 364 364 364 363 363
350 350 352 353 354 353 353 354 354 355 354 355 354 354 352 353 354 358 355 356 354 353 353 354 356 355 356 357 359 355 355 353 355 355 356 355 356 356 356 355 356 357 357 357 356 356 356 356 357 358 359 359 360 359 359 359 357 352 348 349 348 349 350 351 351 351 351 351 354 357 358 358 358 359 360 361 362 363 361 361 363 363 363 363 363
348 350 351 352 353 353 353 353 354 355 354 355 354 352 353 353 355 355 353 359 353 353 354 356 354 355 356 357 359 354 353 353 353 354 355 356 356 356 356 355 356 356 356 356 356 354 355 356 358 358 356 356 354 353 352 354 355 355 350 346 348 347 348 349 348 349 350 351 352 352 357 358 359 361 361 361 362 362 362 361 362 363 363 362 361
349 350 351 351 353 353 352 352 354 354 354 355 353 352 352 352 354 355 354 359 353 354 355 355 354 354 355 357 359 356 353 352 352 353 354 355 355 355 355 355 355 355 355 355 355 354 354 356 356 355 355 353 352 351 354 353 354 353 354 353 350 350 349 349 350 349 351 351 351 352 357 358 360 360 362 363 363 363 363 363 362 361 363 363 362
351 350 350 351 353 353 352 352 353 355 354 354 353 352 353 352 354 354 354 356 355 356 356 355 356 355 355 357 357 358 354 352 352 352 352 354 354 354 354 354 354 355 355 355 356 355 355 356 355 354 353 351 350 352 358 353 350 351 353 355 353 350 350 350 349 351 350 349 351 354 353 356 358 357 359 359 363 363 363 363 362 362 363 364 362
349 349 350 351 352 352 352 352 353 353 353 353 354 352 352 352 353 353 354 356 358 355 355 355 359 356 357 357 356 356 359 353 351 351 352 352 353 354 354 353 353 355 356 355 355 356 356 356 356 355 353 352 351 353 354 350 346 349 350 352 352 349 349 350 350 351 350 350 351 353 353 355 357 354 355 358 361 362 362 363 362 362 362 362 362
349 351 349 350 351 352 351 352 352 352 351 351 352 352 352 352 352 353 354 357 358 355 354 354 354 356 357 357 355 355 357 354 352 351 357 352 352 353 354 354 353 353 354 355 354 354 353 351 351 355 351 349 349 348 352 349 345 346 351 353 355 349 347 350 350 349 349 351 352 353 353 356 355 353 354 356 359 363 363 363 363 363 362 362 362
347 349 348 349 352 352 352 352 353 352 352 351 351 351 351 350 352 352 354 356 356 354 354 353 354 355 356 356 355 354 356 353 351 350 350 349 348 350 352 352 351 350 351 352 351 350 349 347 347 349 354 353 348 346 347 345 347 347 348 350 354 355 352 351 350 349 354 356 356 355 354 352 354 357 359 359 360 363 362 362 364 363 361 361 361
348 347 346 349 352 351 352 352 354 352 354 352 350 349 350 349 350 351 352 355 355 353 352 352 352 353 354 354 354 353 355 353 352 351 349 350 349 347 347 347 347 348 347 349 349 348 348 346 347 345 345 347 348 349 349 345 345 346 347 351 352 354 355 352 348 349 357 355 355 355 355 355 356 358 360 357 362 363 362 361 363 362 363 361 361
347 347 347 350 350 350 352 351 353 352 353 352 350 349 349 349 349 354 352 354 354 351 350 351 351 352 353 353 354 354 355 354 353 352 351 352 349 346 345 344 351 349 347 348 348 346 345 346 349 346 343 343 347 344 345 344 346 347 347 349 350 355 352 355 352 354 356 353 353 354 356 356 355 354 360 353 355 360 364 363 363 363 358 358 360
347 347 346 348 348 350 352 351 352 352 352 352 350 349 348 349 349 353 352 352 352 351 350 350 350 350 351 352 353 354 355 354 354 354 355 355 352 351 349 346 355 348 347 348 348 348 346 347 347 350 345 343 344 343 343 345 347 347 348 351 349 351 348 352 352 352 355 354 353 355 356 357 357 360 356 353 352 352 361 364 363 362 356 357 361
347 348 347 347 346 349 350 351 351 352 352 351 349 348 348 350 351 354 354 351 351 351 350 350 349 350 351 352 353 354 356 356 357 357 354 357 354 353 352 353 356 352 348 349 350 353 349 347 348 349 346 344 342 340 341 347 349 351 349 350 348 351 349 349 351 358 351 352 352 352 353 356 357 352 352 352 352 351 352 359 361 361 359 359 357
347 348 348 348 348 349 349 352 350 351 351 351 350 348 348 350 351 354 352 350 350 350 350 348 348 349 351 353 354 356 358 357 358 361 355 355 354 354 353 356 358 355 351 349 352 356 355 354 348 349 348 344 342 341 343 347 351 349 350 350 350 350 349 351 353 351 351 352 354 357 355 355 355 353 351 352 351 351 352 352 353 355 358 362 362
347 348 349 347 347 348 348 350 350 350 351 351 350 347 346 348 347 350 350 350 349 350 348 348 347 347 352 355 356 357 357 358 356 358 356 357 356 357 356 359 356 352 348 348 348 349 349 351 350 348 345 347 349 347 347 347 347 346 347 348 349 350 350 353 351 350 354 352 351 353 353 354 353 353 352 352 353 351 351 350 356 354 355 360 362
350 347 346 346 347 347 348 347 349 350 350 349 349 346 344 344 346 347 348 349 348 348 348 347 346 346 351 354 356 357 356 359 358 357 355 361 359 357 355 356 357 357 355 351 352 354 353 352 353 354 342 342 344 348 349 348 343 341 341 342 343 347 354 354 352 352 353 352 351 352 355 356 352 352 352 351 350 350 350 351 350 351 354 354 357
345 345 344 344 346 347 347 348 349 349 349 350 350 348 346 345 346 346 348 348 348 348 345 345 345 346 350 353 356 356 356 359 360 357 357 354 353 355 354 352 355 355 356 359 356 366 352 350 349 342 348 341 340 347 349 346 338 337 334 336 340 343 347 351 349 350 354 355 355 355 354 354 352 351 353 354 353 351 351 351 351 353 354 354 353
344 343 343 344 345 346 347 348 349 349 349 350 349 348 348 349 347 347 348 347 349 351 346 345 346 345 348 352 355 356 356 359 359 360 358 356 355 353 353 353 353 361 351 350 350 349 350 348 347 344 342 345 345 347 346 345 337 342 342 336 330 332 339 341 346 350 352 352 354 356 357 355 352 351 354 354 352 353 354 352 352 352 352 354 354
343 342 342 343 345 347 346 347 349 349 349 351 352 349 351 350 348 348 350 349 347 351 350 349 345 348 350 353 355 357 357 358 361 360 359 357 355 354 353 353 352 356 351 349 352 350 350 348 348 349 345 340 339 340 347 345 343 340 332 333 334 334 327 330 335 344 355 354 356 357 355 352 351 352 352 351 353 352 350 352 352 352 352 354 355
342 342 342 343 345 346 346 348 349 348 350 353 351 350 353 349 348 348 351 350 351 348 347 345 344 350 352 352 354 357 358 357 361 359 361 357 356 355 353 352 352 354 354 350 349 348 347 345 345 346 344 339 339 340 344 346 344 345 341 337 330 328 328 333 339 336 348 350 351 352 355 350 349 352 349 348 349 349 351 353 353 353 353 353 353
342 343 344 344 346 346 347 348 349 349 349 351 350 350 351 347 344 342 342 342 342 342 342 342 341 349 350 353 354 356 357 357 358 359 359 359 356 355 354 353 353 356 358 351 349 349 348 348 348 347 344 344 341 339 340 349 345 345 346 340 337 333 333 336 335 328 341 351 352 351 350 350 349 350 348 346 346 347 353 354 352 351 351 350 351
343 346 344 344 346 346 347 348 348 348 349 351 350 351 348 346 345 343 342 343 342 342 344 344 342 347 352 351 352 356 356 356 357 357 357 359 357 356 354 354 353 353 361 354 351 351 351 350 353 348 346 356 347 342 343 342 348 348 351 351 350 352 344 338 333 336 331 337 347 346 345 350 350 350 350 349 348 347 348 352 352 351 351 351 349
344 347 343 345 345 347 347 347 348 350 349 350 350 351 348 346 344 343 344 343 343 342 343 343 342 347 347 349 351 354 355 356 356 356 356 357 358 356 355 354 352 354 357 356 353 351 352 352 356 351 358 355 349 344 345 345 340 341 358 350 349 354 349 349 345 338 336 333 336 341 347 348 350 349 351 350 350 349 348 349 351 351 349 350 350
349 346 344 347 346 348 348 348 348 350 350 349 349 350 351 347 344 343 346 345 344 344 345 347 351 351 343 346 348 351 353 354 354 354 354 354 359 356 355 355 354 354 361 359 355 353 351 351 355 355 354 355 352 351 346 343 344 342 341 342 350 348 350 350 349 346 337 331 332 334 335 342 345 347 348 350 350 351 351 351 352 355 354 354 352
347 347 346 348 348 348 348 348 348 349 350 349 349 349 351 351 344 343 344 346 347 345 344 349 349 348 345 347 348 349 352 352 353 352 352 352 357 357 356 356 356 356 360 357 355 352 352 352 352 354 356 354 357 355 349 349 349 348 345 343 347 347 342 343 344 340 339 338 332 331 334 335 336 340 348 348 349 351 351 351 352 352 351 350 351
347 347 347 348 348 348 349 347 348 350 351 349 349 350 351 350 345 344 344 344 347 347 346 348 348 346 347 349 348 349 351 351 355 353 352 353 357 358 357 357 357 361 361 357 355 353 351 353 356 360 357 355 354 352 353 352 353 349 348 347 347 347 342 340 338 341 339 334 335 335 336 338 339 338 343 350 350 349 350 351 351 351 351 350 350
Wind_Speed
6 9 8 13 16 16 15 14 18 20 18 18 18 18 18 18 18 17 17 18 17 17 17 17 16 16 17 17 17 16 16 17 17 17 18 17 17 17 17 17 17 17 17 16 16 15 15 16 16 17 17 17 17 16 16 15 14 14 13 12 12 12 12 12 12 12 12 11 11 12 12 12 12 13 14 13 13 13 13 13 12 9 6 11 16
11 8 8 9 14 15 17 16 18 19 19 18 18 18 18 18 18 17 17 17 17 17 17 16 16 16 16 16 17 15 15 15 15 17 17 17 17 17 17 17 17 17 16 16 15 14 15 16 16 16 15 16 16 16 16 15 15 14 14 13 13 12 12 12 12 12 12 11 11 11 12 11 11 11 11 11 12 12 12 12 13 6 4 12 15
10 9 7 10 15 15 15 18 18 19 19 18 18 18 18 17 17 17 17 17 17 17 17 16 15 15 15 15 16 15 15 14 14 15 16 16 16 16 16 16 16 16 16 16 14 14 14 15 15 15 14 14 15 14 15 14 14 13 13 13 13 12 12 12 11 10 10 11 11 11 12 11 10 10 11 11 12 12 13 13 13 10 7 14 13
11 8 8 11 15 13 15 17 19 19 19 18 18 18 18 18 17 17 18 17 17 17 16 16 15 14 14 14 15 15 14 14 13 14 14 15 16 16 15 15 15 15 15 15 14 13 13 14 14 13 13 13 13 12 12 13 13 12 12 12 12 12 12 11 10 10 9 9 9 6 3 3 6 9 10 10 12 13 13 12 12 12 13 13 14
11 9 8 10 11 12 14 16 19 19 19 19 18 18 17 17 17 17 17 16 16 16 16 16 15 14 14 14 14 14 14 13 13 13 13 14 15 15 14 15 14 14 14 13 13 12 12 12 13 13 12 11 12 12 11 11 11 11 11 10 11 11 11 10 10 8 8 7 7 5 2 3 3 8 9 9 11 13 13 12 12 12 12 13 13
10 8 8 9 9 11 15 15 18 19 19 19 18 18 17 17 17 17 16 16 16 15 15 14 14 14 13 13 13 13 13 12 12 12 13 13 14 14 13 13 13 12 12 13 12 11 10 10 11 12 11 10 10 11 10 9 9 10 10 10 10 11 11 10 11 10 7 8 7 3 2 2 1 4 9 10 11 13 14 13 12 12 13 13 12
12 8 8 8 7 10 15 15 17 19 19 19 18 18 17 16 16 16 16 15 14 14 14 14 13 13 13 13 13 13 13 12 11 11 12 12 12 13 13 12 11 11 11 11 11 10 9 9 9 10 10 9 10 10 9 9 9 9 10 10 9 9 9 9 9 8 8 5 3 3 3 2 2 1 10 11 11 13 14 13 13 13 13 13 13
9 7 7 7 7 12 16 16 16 18 19 19 18 18 17 16 16 15 15 15 14 14 13 13 12 12 12 12 12 12 12 11 11 11 11 11 11 12 12 12 11 10 10 10 10 9 8 8 9 9 9 8 8 9 8 8 8 8 8 10 10 9 9 8 7 7 8 4 2 2 2 1 1 1 10 11 11 13 13 13 12 13 14 13 12
10 8 8 7 7 16 17 16 17 17 19 19 19 18 18 17 16 15 15 14 14 14 13 13 13 12 12 12 12 11 11 11 11 10 11 11 10 10 11 11 10 9 9 8 8 8 7 7 7 8 8 7 7 7 7 7 7 7 8 8 8 8 7 7 6 5 4 3 2 2 1 0 1 0 5 8 13 13 13 11 12 14 14 13 12
10 9 8 7 7 17 17 17 17 16 18 19 19 18 18 17 16 16 15 14 14 14 14 14 13 12 12 12 11 11 11 10 10 10 10 10 9 9 10 10 9 8 8 7 7 7 6 6 6 6 7 6 6 5 6 6 6 6 6 7 7 7 6 5 5 4 1 2 1 1 1 5 1 0 5 8 9 12 13 12 8 10 10 14 12
11 9 8 7 9 18 18 18 18 17 18 19 19 19 18 18 17 16 15 14 14 14 14 14 13 12 12 11 11 11 11 10 10 10 9 9 9 8 8 9 9 8 7 7 6 6 5 5 5 5 5 5 5 4 4 5 5 4 5 6 8 7 5 5 6 2 1 1 1 1 3 6 1 1 8 9 10 10 11 11 11 11 12 13 13
10 9 8 7 13 19 19 19 18 18 18 19 19 19 18 18 17 16 16 15 15 15 15 14 14 12 12 11 11 11 11 10 10 9 9 8 8 8 8 8 8 6 6 6 6 5 4 5 4 4 4 4 4 3 2 4 4 5 7 7 7 6 5 5 4 1 1 1 1 1 3 1 1 2 9 10 11 11 12 11 11 12 12 12 12
10 9 8 8 9 17 18 19 19 16 17 17 19 18 17 17 16 16 16 15 15 15 15 14 13 13 12 11 11 11 10 10 10 9 8 8 7 7 7 7 7 6 5 5 4 4 4 3 4 4 3 3 3 2 1 2 4 7 6 7 6 5 4 4 3 1 0 0 1 1 3 2 1 4 10 11 12 12 11 10 10 10 11 12 13
11 10 8 8 7 17 19 19 19 19 18 17 18 18 17 16 16 15 15 16 15 14 14 14 14 13 12 11 10 10 10 10 9 9 8 7 6 6 7 7 6 5 5 4 4 3 2 2 2 2 3 2 2 1 1 1 4 4 5 5 3 3 3 3 3 2 2 2 2 2 2 3 2 4 11 11 11 11 10 11 10 10 11 13 13
11 11 9 8 8 10 19 19 18 20 19 18 17 18 17 16 16 16 14 14 14 14 14 14 13 13 12 11 10 10 9 9 9 9 8 7 6 6 6 6 6 5 4 4 3 3 2 2 2 2 2 2 2 2 1 1 3 2 3 2 1 0 0 3 1 1 2 2 2 3 3 2 4 3 10 11 10 10 10 11 12 11 11 12 13
11 11 9 8 8 8 10 16 19 18 18 18 17 17 18 17 16 16 16 14 12 12 13 13 13 11 11 11 10 10 9 9 8 8 8 7 6 5 4 5 5 4 4 4 3 2 2 2 2 2 2 1 2 3 2 1 1 3 3 5 4 3 1 3 2 1 1 1 3 2 3 2 6 7 10 11 10 8 6 12 11 13 12 12 13
10 10 9 8 8 7 8 9 13 20 18 17 16 16 17 17 17 16 15 14 14 13 12 12 11 10 11 11 11 9 9 9 8 8 7 7 6 6 5 4 4 4 4 4 4 4 3 3 3 3 2 3 4 3 1 2 1 4 0 5 8 7 4 1 2 1 1 2 3 3 4 4 7 7 11 13 12 8 5 9 11 12 12 13 12
9 9 9 8 7 7 7 7 10 9 9 14 16 17 16 17 17 16 15 15 14 12 11 10 10 10 11 11 10 9 9 8 8 7 7 7 7 6 5 5 5 5 5 5 5 4 4 4 5 3 1 3 4 3 2 2 1 1 5 5 7 7 7 4 4 3 2 3 2 1 2 5 8 10 12 14 13 11 7 7 8 9 12 12 12
8 8 8 8 7 7 7 6 6 7 8 7 7 11 17 17 16 15 16 15 15 13 12 11 11 11 11 10 9 9 9 9 9 9 7 7 7 7 6 6 6 6 6 5 6 6 6 6 5 4 4 6 5 3 3 2 2 3 4 5 7 9 9 5 2 2 4 4 3 3 3 6 7 10 15 15 14 14 10 10 8 7 3 8 13
7 8 8 7 7 8 6 6 6 6 5 6 6 8 14 17 16 16 16 15 14 13 13 12 12 11 10 10 10 7 8 7 10 7 9 8 8 6 7 6 7 6 6 6 7 7 6 6 4 5 6 6 6 6 5 5 5 6 6 7 8 9 5 1 2 3 2 4 4 4 6 9 7 10 14 15 14 14 13 11 10 9 8 5 8
5 7 6 7 7 8 7 6 6 6 6 6 6 6 8 15 13 15 16 15 13 13 13 12 11 10 9 9 9 5 2 3 4 3 8 5 8 9 8 7 7 7 7 7 8 7 7 6 5 6 7 7 7 7 6 6 7 7 8 7 8 6 4 3 2 2 3 4 4 5 8 9 9 9 13 15 15 14 14 13 13 12 11 9 7
7 6 5 6 7 6 7 7 6 7 6 5 4 5 6 10 5 6 7 9 11 11 8 5 7 4 10 6 3 3 2 2 2 5 3 4 6 9 8 8 8 8 8 8 8 7 8 8 7 8 8 8 8 3 3 5 8 7 7 8 6 5 3 4 4 3 4 4 4 5 9 9 10 11 12 14 14 15 14 15 15 14 14 13 12
8 7 6 8 7 6 7 7 7 7 7 6 5 5 4 5 4 4 4 8 5 5 4 3 3 3 1 2 3 3 3 2 2 4 3 8 6 8 9 8 8 9 9 9 8 8 9 9 9 9 9 8 4 1 2 3 2 8 8 4 3 3 2 4 4 2 3 2 2 6 8 9 10 11 13 14 15 15 16 16 16 17 16 14 12
10 8 8 7 7 7 8 8 8 8 7 6 5 5 4 5 4 4 3 4 3 4 3 3 3 2 3 3 3 3 3 3 5 9 8 4 4 8 9 10 10 11 11 7 8 9 11 11 10 10 7 3 1 2 3 3 3 4 5 1 1 4 3 3 3 3 2 3 3 7 9 11 11 11 13 15 16 16 16 17 17 17 17 16 15
8 7 7 8 9 8 8 7 7 7 7 6 6 6 5 5 5 5 4 4 4 4 4 3 3 3 3 3 3 3 3 3 3 3 3 2 2 3 3 3 2 3 8 3 4 4 5 3 4 5 2 2 2 3 3 3 4 4 4 0 1 3 3 2 3 3 4 3 4 9 11 12 13 13 12 14 15 16 16 16 18 17 17 17 18
8 8 9 8 9 9 8 7 7 6 7 6 6 6 7 6 5 5 5 4 4 4 4 4 4 4 3 3 3 3 3 3 3 3 3 2 4 4 5 4 3 4 3 4 3 3 4 5 5 4 3 2 3 4 4 4 4 1 2 0 2 4 4 3 3 3 4 4 4 10 12 14 12 14 14 13 14 15 15 16 16 17 17 17 17
9 8 8 7 8 9 8 8 8 6 7 5 5 5 5 4 4 5 5 4 4 4 4 4 4 4 3 4 4 4 3 2 3 3 3 3 4 4 5 4 5 4 4 4 4 4 5 6 5 4 3 3 4 5 5 5 4 4 4 3 3 5 4 3 2 3 4 4 5 10 11 10 13 14 14 14 13 14 14 15 16 16 16 16 16
8 9 8 8 8 10 9 9 8 7 6 6 6 6 4 5 5 4 4 4 4 4 4 4 4 4 3 4 2 3 3 2 2 3 4 2 4 3 4 4 5 5 5 5 5 5 5 6 5 4 3 4 5 5 5 5 4 9 4 6 4 4 4 2 2 2 2 2 4 7 9 8 11 15 15 14 14 15 15 16 15 15 16 16 16
10 10 9 9 9 9 11 11 9 8 7 7 6 5 5 5 5 5 5 6 5 5 4 4 4 4 3 4 3 3 2 2 3 4 3 4 3 4 4 5 5 5 5 5 5 5 6 5 5 4 3 4 5 5 4 3 3 6 9 7 7 4 4 3 3 3 3 3 5 5 10 12 15 17 16 15 15 15 16 16 15 16 17 17 16
11 11 10 10 10 10 12 12 11 9 8 7 5 6 6 6 6 6 6 5 5 5 4 5 4 4 4 3 4 3 3 3 3 4 4 4 4 5 6 6 5 5 5 6 5 6 6 5 4 3 4 4 4 5 5 4 3 3 6 7 6 4 4 4 4 3 4 4 4 4 10 14 17 16 15 15 15 15 15 15 15 15 15 16 16
12 12 11 10 10 12 12 12 11 9 8 8 7 7 7 6 6 5 5 5 6 5 5 4 4 5 5 4 4 3 3 4 4 5 4 4 5 5 6 5 5 5 5 7 6 6 5 5 5 4 4 5 5 5 5 3 2 1 2 4 3 4 3 3 4 3 4 3 3 4 7 17 17 12 12 15 16 13 14 15 16 15 15 15 16
13 12 10 9 11 13 13 13 12 11 9 9 8 8 7 7 6 5 6 5 5 6 5 5 5 5 5 5 5 5 5 5 5 5 5 5 5 6 6 5 7 6 6 6 6 5 5 4 4 3 4 5 5 5 3 3 2 3 4 4 6 3 4 4 2 4 5 4 4 4 5 8 8 6 11 17 15 13 13 14 15 16 15 15 16
10 13 10 11 12 12 12 12 13 12 11 11 9 9 8 7 7 6 6 6 5 6 6 6 5 5 5 6 6 6 5 6 6 6 4 4 5 6 6 7 7 7 6 7 7 4 3 4 4 2 2 4 4 4 2 3 1 2 3 4 6 8 5 5 4 4 6 7 5 5 5 3 4 8 13 15 16 13 13 13 15 16 16 16 16
10 10 11 12 10 9 9 10 12 12 12 10 9 9 8 8 7 6 6 6 5 6 6 6 5 5 5 6 6 6 6 6 6 6 5 5 5 6 8 7 7 7 7 6 6 4 5 5 5 2 5 2 1 1 1 2 1 3 3 3 5 7 8 5 3 6 6 5 5 4 3 2 3 4 5 10 16 12 12 13 14 16 16 16 16
10 11 13 14 13 11 9 9 11 11 11 10 11 10 9 8 8 7 7 7 6 6 6 6 6 6 5 5 6 7 6 6 5 6 6 6 7 8 7 8 8 9 7 7 6 5 5 6 4 4 3 3 1 0 1 1 2 2 1 2 3 5 6 8 7 7 6 4 3 3 3 3 3 5 4 3 9 13 12 12 13 14 15 16 15
13 12 12 13 13 12 11 11 12 12 10 11 10 9 9 8 8 8 7 8 7 6 6 7 7 6 6 6 6 6 6 6 6 6 6 7 7 6 6 4 8 6 6 5 4 5 5 4 4 3 3 4 2 1 0 2 2 2 1 1 2 2 3 6 6 5 2 2 3 3 3 3 3 2 5 3 4 6 13 12 13 13 10 14 16
12 13 12 13 12 13 12 13 14 13 11 11 10 9 8 8 8 8 8 8 7 7 6 6 6 6 6 6 6 6 6 6 7 7 7 6 5 3 2 3 2 6 5 5 5 5 5 5 4 3 3 3 2 2 2 2 3 2 1 1 1 2 1 4 4 3 2 2 3 3 3 3 2 5 1 2 2 1 7 12 13 14 14 19 14
11 12 13 14 13 13 12 12 13 12 10 10 10 9 9 9 8 7 7 7 8 7 6 6 6 6 6 7 7 7 7 7 7 7 7 3 1 2 3 2 1 2 3 4 3 3 4 4 4 3 4 3 2 2 3 3 3 3 1 1 0 1 0 0 1 3 3 3 3 3 3 3 3 1 2 1 2 2 2 5 10 12 14 13 14
10 9 12 13 10 12 10 11 12 11 10 9 9 8 9 8 8 7 8 8 6 6 6 6 7 6 7 8 7 7 7 7 7 6 4 1 1 3 4 3 1 3 3 3 2 1 1 1 3 2 3 2 1 2 2 1 3 3 3 2 1 0 1 1 1 2 3 3 3 3 3 4 4 2 3 3 2 2 2 2 0 2 7 14 13
4 12 10 11 9 11 9 9 10 10 9 8 7 7 6 7 7 6 7 7 7 6 6 7 6 7 7 8 8 8 7 7 6 4 2 1 0 2 3 3 2 3 2 1 3 2 1 1 0 5 2 1 0 0 1 0 2 3 3 5 2 1 1 1 2 2 3 4 4 2 3 3 3 3 3 3 2 2 2 2 2 1 2 7 12
8 11 9 10 9 11 9 10 9 9 8 8 7 8 8 7 6 7 7 7 7 7 7 7 7 8 8 8 8 8 7 6 5 4 3 2 1 1 2 2 1 1 2 1 2 1 1 1 0 2 3 1 2 0 1 1 1 4 2 3 5 2 2 1 2 3 4 5 4 4 4 4 3 3 3 2 2 2 2 3 2 1 2 2 5
10 10 12 10 11 11 10 10 8 9 10 9 8 8 8 7 7 7 6 7 7 7 7 7 8 8 9 8 8 7 6 6 5 4 3 3 3 2 2 2 0 1 2 2 2 1 1 2 0 1 1 3 3 3 4 3 1 1 3 6 5 5 2 2 2 2 2 3 3 3 2 2 1 1 1 3 3 2 2 3 3 3 3 3 3
15 16 11 10 11 11 10 10 9 9 10 9 8 7 6 7 6 6 7 6 5 6 6 7 7 8 9 9 8 7 6 5 5 4 4 3 3 3 3 2 1 0 1 0 0 2 3 3 2 2 0 0 1 3 4 4 1 0 1 2 3 5 5 3 0 1 1 1 2 2 2 2 1 1 1 2 2 4 3 4 4 3 2 3 3
12 13 13 11 11 11 9 10 10 10 9 9 8 6 6 5 4 6 5 6 5 3 3 2 5 5 7 8 7 7 7 6 6 5 4 4 4 4 3 2 2 1 2 1 1 3 3 3 3 3 1 1 2 3 3 3 2 4 2 1 1 1 4 2 2 3 0 0 3 3 3 2 3 3 3 4 4 3 3 3 3 3 3 3 3
13 12 12 12 10 13 12 12 10 10 9 9 9 7 6 5 4 3 3 3 1 3 2 2 4 5 6 6 7 8 8 7 6 6 5 4 4 3 3 3 2 2 2 3 3 4 4 4 3 3 2 3 3 2 3 4 5 5 2 1 2 1 2 3 2 3 1 2 1 2 2 2 2 4 3 2 2 2 2 3 3 3 3 4 4
12 11 11 12 12 12 12 12 9 9 9 9 9 8 7 7 6 5 5 4 6 5 6 7 5 5 7 7 7 6 6 5 5 5 5 4 4 4 3 3 3 3 4 4 4 3 4 4 4 4 4 5 4 3 3 3 6 6 6 3 2 2 2 2 1 2 3 0 2 2 2 2 1 2 2 2 2 1 2 2 2 2 2 2 3
10 9 10 12 13 13 13 13 11 9 9 9 9 7 6 6 7 7 6 7 7 6 5 5 5 5 5 6 7 6 6 7 6 5 6 5 5 4 4 4 4 4 3 3 3 4 5 5 2 2 4 1 3 2 3 3 1 4 6 6 4 2 3 2 2 0 3 2 1 1 2 2 2 2 2 2 3 2 2 2 2 2 2 3 3
9 9 10 11 13 13 13 12 10 10 9 9 10 9 8 7 7 6 6 7 7 8 6 6 4 5 5 6 6 6 7 6 6 6 6 6 6 6 5 5 5 4 3 3 3 4 4 4 3 3 2 3 2 2 2 2 2 2 1 3 3 0 1 1 2 2 1 2 4 2 1 1 2 3 3 3 2 1 1 2 2 3 2 2 3
9 11 11 11 12 13 13 12 11 10 10 11 10 9 8 8 8 7 6 7 8 7 7 4 4 4 6 5 5 6 5 5 5 6 5 6 5 6 6 6 5 4 3 4 3 3 4 5 4 2 3 2 2 1 1 2 1 3 2 2 0 1 1 1 1 2 1 0 4 1 4 3 1 0 0 1 2 1 2 2 3 3 3 3 4
10 9 10 10 11 11 12 12 11 10 10 11 11 11 9 7 8 7 7 6 7 6 5 4 4 5 6 6 6 6 6 6 5 4 5 5 5 5 5 6 6 5 4 4 4 4 4 4 4 3 1 1 0 1 2 2 2 2 1 2 2 0 1 1 1 2 2 0 3 4 3 3 5 4 1 2 1 1 1 2 2 2 3 3 4
9 10 10 11 11 12 12 13 12 10 10 12 11 11 9 8 8 9 8 6 5 6 6 5 5 4 6 5 6 6 5 6 4 3 3 4 4 5 5 6 6 5 5 4 5 4 4 4 3 2 2 2 2 1 1 1 2 2 2 1 3 4 4 4 3 3 2 1 1 4 4 2 2 5 4 1 1 2 2 2 3 3 4 4 3
Wind_Direction
169 150 149 156 159 150 152 158 152 143 139 137 135 133 131 128 127 126 124 121 119 116 116 115 112 111 112 114 115 114 113 112 111 110 109 110 109 108 108 107 106 104 103 101 101 102 103 103 104 106 108 110 112 113 112 112 114 114 113 111 110 111 111 109 107 106 108 109 110 112 113 119 121 124 130 132 128 124 121 112 105 103 103 113 111
157 152 151 159 156 150 153 158 154 146 142 140 138 135 133 131 130 128 126 124 122 119 118 116 115 114 114 115 116 114 113 111 110 111 112 111 110 109 109 108 107 105 104 103 102 100 102 104 105 106 107 109 108 109 111 114 115 118 120 119 117 115 115 111 109 108 108 109 111 114 115 117 119 120 123 124 119 118 116 113 110 103 115 116 112
141 145 154 155 154 155 152 154 152 149 145 142 141 139 136 134 133 131 129 127 124 122 121 119 117 116 116 115 116 115 113 112 112 112 113 113 110 109 108 107 106 105 104 103 102 104 104 106 107 107 107 108 109 112 114 114 113 114 116 120 120 117 116 116 111 109 112 114 118 117 116 117 121 126 129 127 121 119 120 121 121 117 117 113 113
143 147 150 154 152 153 152 156 151 151 149 145 144 142 140 138 136 133 131 128 127 126 124 122 120 120 120 120 118 117 115 114 114 114 114 113 112 110 109 108 107 106 106 104 104 104 105 106 106 105 106 108 109 109 110 114 116 117 118 117 114 109 107 104 107 115 117 112 89 75 62 80 116 125 131 134 129 122 125 123 120 119 116 116 116
143 146 148 150 158 156 155 157 152 152 151 148 148 147 144 141 139 136 132 130 128 128 126 125 125 125 125 123 120 119 118 118 117 116 116 115 114 112 111 109 109 108 107 105 104 105 105 106 108 108 108 109 110 110 110 110 111 115 115 116 116 115 114 107 102 100 106 103 85 58 31 58 102 134 142 138 124 126 126 126 123 122 122 120 119
144 147 149 152 157 156 153 158 154 152 153 152 150 149 147 144 141 139 136 133 132 130 129 129 130 130 129 125 122 120 121 121 120 119 117 117 115 114 112 109 108 108 107 107 108 106 105 107 108 109 111 115 115 114 111 112 111 111 111 111 118 125 125 114 102 106 94 71 53 21 16 35 45 131 143 126 131 130 128 127 126 125 124 121 120
143 146 150 151 154 155 156 157 157 153 153 155 154 153 151 147 144 142 139 137 136 134 134 133 134 134 133 130 126 125 123 125 123 120 118 117 116 115 113 110 109 107 105 106 106 108 109 109 109 109 110 116 113 115 117 116 112 106 107 105 107 113 100 83 78 83 70 58 33 9 3 33 49 63 135 137 135 130 127 126 126 126 125 123 119
140 147 149 152 153 158 158 156 161 154 155 157 157 155 154 152 148 145 144 141 140 140 138 137 137 138 136 133 131 129 129 128 128 124 119 117 115 114 113 112 110 108 107 106 107 108 110 112 113 113 116 116 115 112 113 114 112 111 106 106 106 97 85 79 75 63 66 62 36 19 10 52 55 10 147 141 136 129 127 128 128 129 127 126 125
144 150 151 150 158 159 157 159 161 158 156 158 160 158 158 157 153 149 147 145 145 143 141 141 143 143 142 139 138 136 134 132 130 127 123 119 116 114 113 112 111 110 109 108 106 108 111 112 112 112 114 115 111 111 113 118 115 113 109 106 101 92 83 75 70 63 57 76 64 37 25 253 100 22 151 149 142 132 130 131 133 133 134 133 131
147 150 153 152 160 160 159 158 162 161 157 159 162 162 161 160 158 153 151 150 147 146 146 147 148 149 148 147 143 141 139 135 132 130 125 122 120 118 117 114 113 112 112 112 110 109 113 113 109 107 105 106 107 113 116 122 122 124 117 112 107 100 85 81 85 78 70 35 37 29 286 171 163 61 152 152 141 140 136 136 141 142 145 141 139
147 150 151 154 164 161 160 159 162 164 160 158 162 163 166 165 162 158 156 153 152 151 150 152 153 155 153 150 147 144 141 138 136 134 130 127 126 124 119 119 118 123 122 117 114 113 109 108 109 107 105 103 108 112 126 120 121 123 124 104 98 89 82 94 88 28 67 59 48 22 69 171 116 238 154 155 153 147 147 149 154 151 150 148 149
146 147 152 155 166 162 162 162 162 161 165 159 160 163 166 167 166 164 160 158 158 156 155 156 158 158 156 153 150 148 145 141 139 136 133 130 129 124 117 112 113 116 120 116 114 116 112 112 110 114 115 110 108 115 127 122 118 101 100 71 61 59 71 86 87 100 124 125 104 139 102 176 326 214 165 162 159 160 156 159 162 155 156 149 143
146 148 151 162 165 163 163 163 159 163 163 163 159 161 161 166 167 167 164 162 161 159 158 160 162 162 160 155 155 151 145 142 141 138 135 136 138 135 132 127 124 125 117 112 118 117 117 118 119 126 126 123 110 115 151 112 105 95 83 54 38 45 66 79 86 76 60 157 168 157 133 142 308 246 170 169 169 163 161 165 164 158 156 143 148
145 149 153 157 162 165 164 164 163 162 162 162 163 157 160 159 162 159 164 164 164 163 163 163 165 164 161 158 155 151 148 144 142 139 135 139 145 146 140 135 137 136 123 124 129 136 130 130 141 135 132 122 125 164 210 112 72 50 55 65 61 26 66 87 120 146 210 201 169 169 152 144 188 260 182 177 177 174 172 160 160 158 155 148 151
146 149 151 156 159 164 166 167 166 162 160 162 167 164 161 160 159 158 158 160 164 168 168 167 164 165 164 159 154 151 151 152 149 146 143 146 157 155 147 139 138 141 136 134 146 136 150 175 165 173 146 133 192 215 215 75 99 33 32 9 46 209 150 123 135 182 200 169 197 176 162 166 154 226 196 181 181 184 181 152 151 162 157 152 154
144 146 149 156 157 163 166 171 169 167 164 163 167 167 165 161 164 163 164 160 160 165 166 165 165 166 167 159 159 158 158 161 161 154 152 162 169 167 163 153 156 158 161 166 173 179 181 190 210 196 166 178 222 231 227 205 134 109 354 318 318 305 268 137 153 186 207 149 186 172 162 196 179 194 200 185 182 198 185 154 151 157 159 156 155
143 145 147 152 155 159 163 170 170 171 168 165 166 169 168 168 170 170 169 164 166 168 170 168 162 163 168 166 164 164 168 170 165 164 167 181 181 179 183 178 185 186 193 194 195 205 210 207 223 214 194 225 238 239 235 256 248 130 188 308 309 305 302 141 137 182 207 202 201 172 168 185 199 191 202 200 183 198 185 163 156 160 164 159 157
144 146 147 152 152 152 157 161 165 169 168 170 170 171 170 174 174 173 173 172 172 171 168 166 171 174 177 176 175 173 179 176 172 171 179 199 196 199 201 203 208 206 203 207 203 209 213 217 217 219 226 248 241 226 224 245 269 204 179 236 261 279 288 283 143 170 194 226 177 201 181 203 193 202 195 205 184 183 188 167 157 168 168 165 163
145 147 148 150 151 147 149 157 153 160 163 165 166 175 174 175 175 175 178 177 178 173 173 173 179 185 187 183 182 183 187 184 182 184 193 201 209 204 209 215 220 215 213 205 208 211 219 225 234 226 222 238 241 245 245 260 272 266 258 241 242 250 262 268 251 174 182 199 183 185 219 216 182 187 187 191 190 174 187 176 158 170 201 181 171
148 150 151 153 148 145 146 149 148 155 153 149 165 168 177 174 178 179 179 179 180 179 178 184 185 190 190 190 187 190 198 196 195 196 204 208 212 209 218 215 224 222 214 212 212 221 228 236 228 232 237 245 252 260 264 269 269 268 264 264 269 275 272 224 222 246 206 208 190 192 204 211 203 188 181 182 187 186 182 183 171 176 180 206 179
152 158 156 154 150 147 144 143 152 151 146 143 161 161 175 175 180 181 181 180 182 182 181 190 184 190 193 196 192 185 173 208 213 190 213 211 221 223 214 222 225 223 219 219 222 230 239 242 227 229 240 245 256 263 269 271 272 272 272 274 271 265 260 264 248 218 224 225 207 198 211 207 207 200 185 181 185 187 190 184 178 181 183 199 192
161 160 164 157 150 149 147 144 149 153 145 144 151 163 175 169 175 181 178 182 184 186 183 183 188 187 196 201 145 148 141 172 183 196 228 228 226 227 224 223 227 227 226 227 230 236 243 243 230 234 240 245 253 260 277 282 285 280 278 283 270 241 233 243 265 242 217 216 225 226 222 220 212 201 197 189 187 186 190 189 182 184 190 194 189
164 164 166 165 158 151 152 152 155 153 148 151 155 169 156 144 164 162 173 180 187 173 160 158 142 176 136 112 142 127 157 192 187 213 210 229 228 236 235 231 228 227 231 231 235 240 245 244 237 240 243 244 246 233 245 263 281 285 280 238 289 308 306 257 254 247 250 243 235 252 251 241 226 211 195 193 191 189 189 192 190 190 191 191 194
168 170 166 164 161 163 160 159 161 159 153 157 157 158 143 145 158 165 168 157 140 136 134 121 138 132 119 119 140 159 177 195 220 220 225 229 241 237 239 233 229 228 231 234 238 241 245 247 243 242 246 235 172 213 238 261 262 256 260 202 204 283 273 275 255 267 254 266 272 275 266 256 242 224 206 195 192 191 191 191 188 189 192 189 193
169 162 163 169 167 162 158 160 164 163 157 160 160 154 148 150 155 156 146 134 128 136 144 135 147 153 143 154 165 175 184 198 232 261 252 233 222 262 262 247 234 244 238 224 232 248 255 263 252 248 218 208 195 222 237 251 247 249 262 81 166 256 263 266 284 281 276 272 274 268 266 257 245 231 220 210 199 195 195 195 194 190 190 194 194
162 170 174 167 167 163 161 161 167 165 163 163 157 158 154 155 156 155 142 128 134 147 140 153 165 171 158 172 174 185 192 198 214 235 253 225 219 227 233 234 239 233 237 244 234 231 245 251 244 230 221 198 218 221 221 224 228 279 326 98 249 250 258 244 249 267 270 263 256 268 264 254 239 234 225 219 212 208 202 201 200 196 195 197 200
170 176 173 168 164 162 161 164 170 165 161 156 149 149 158 154 149 151 144 149 145 154 163 165 171 168 164 175 174 197 200 189 212 235 245 220 221 220 226 224 232 234 233 236 236 222 226 238 236 230 204 199 221 227 222 222 202 97 304 302 265 252 248 251 248 235 253 268 280 277 272 262 249 238 234 229 223 214 217 209 205 201 198 200 202
168 171 173 170 169 165 161 168 173 167 161 159 157 152 155 153 159 161 152 171 157 171 183 172 168 168 173 186 186 194 191 193 225 232 236 226 233 227 230 231 230 233 224 225 233 230 228 234 238 234 211 207 223 224 226 224 194 120 219 272 249 250 256 234 248 257 241 258 265 266 273 257 255 252 243 233 229 224 216 218 206 205 207 204 205
173 174 170 172 174 164 162 173 174 169 162 161 166 154 156 153 163 166 167 183 172 182 179 172 175 178 181 186 189 195 194 204 229 241 238 240 236 239 239 235 228 231 219 230 225 230 234 232 235 227 186 202 219 231 231 225 170 149 154 214 247 241 253 255 249 253 252 223 243 261 256 257 256 254 245 236 235 231 224 216 213 205 208 207 205
176 173 171 174 173 162 167 174 177 171 165 164 166 164 168 163 171 176 173 180 177 179 180 178 184 183 193 190 200 194 209 210 228 239 234 240 237 237 240 241 238 231 221 230 219 220 226 232 227 213 201 213 229 240 234 226 178 151 148 177 207 216 213 227 230 218 227 208 219 240 258 262 259 253 248 240 235 233 229 223 216 212 209 209 209
170 176 176 172 170 164 171 175 176 172 165 167 171 174 170 174 176 172 179 183 176 176 184 185 185 194 193 191 197 202 210 222 226 229 233 234 238 236 242 245 253 238 221 230 219 220 215 222 223 206 200 198 221 230 216 207 179 132 153 154 145 255 254 202 234 224 202 210 231 219 199 232 241 251 265 250 236 231 230 225 220 218 215 212 211
174 179 179 170 167 170 170 171 174 173 169 168 172 173 177 179 178 174 185 180 171 177 185 188 191 195 188 193 192 202 212 225 232 229 224 230 238 240 242 238 242 241 225 229 236 226 221 229 224 205 204 189 211 222 208 187 174 179 178 159 136 228 279 280 236 283 290 253 236 224 204 216 220 224 254 259 238 224 226 229 223 221 218 219 217
179 179 176 171 169 170 169 166 169 172 172 169 175 176 176 178 178 185 187 179 174 174 185 195 193 191 190 193 197 199 210 216 228 238 245 239 242 248 248 239 241 240 236 226 231 225 227 240 239 210 201 195 193 215 193 184 161 179 174 161 156 167 224 264 235 235 237 237 224 218 219 199 163 214 229 248 248 224 222 225 225 223 220 218 221
171 178 174 176 169 171 169 164 167 172 172 169 171 175 179 179 181 183 187 180 173 177 189 194 195 195 197 201 198 204 209 215 220 239 245 253 252 242 240 241 236 235 228 220 220 197 221 230 234 201 239 225 240 236 315 339 184 195 184 184 172 173 170 171 260 256 240 213 212 210 217 194 190 211 232 234 232 219 219 226 229 225 225 222 224
168 176 175 174 172 173 167 171 169 171 171 168 174 179 176 176 179 182 185 183 180 183 187 191 196 202 200 205 204 209 213 209 216 229 242 245 250 245 237 232 228 230 210 210 198 203 212 227 225 214 242 271 293 104 254 246 281 317 172 170 171 180 169 142 180 241 229 217 209 219 213 209 208 209 217 227 220 219 217 222 233 231 228 227 225
173 178 170 170 176 173 168 170 169 172 174 171 175 178 176 175 178 180 180 182 184 190 188 190 195 198 203 206 211 212 215 212 216 224 236 239 243 239 235 222 207 180 188 192 185 201 214 221 232 204 237 261 253 253 145 303 295 272 150 102 129 124 124 124 164 191 193 198 228 223 214 214 219 223 222 203 215 224 218 219 224 228 239 243 224
175 178 175 171 178 174 171 166 170 173 174 173 172 173 173 177 180 179 181 179 186 194 193 188 190 197 202 209 212 213 220 215 217 222 227 223 226 269 276 212 197 163 168 191 195 209 180 199 231 232 207 239 231 253 295 287 295 286 88 67 91 81 84 133 154 163 158 191 224 229 218 220 225 247 264 212 220 258 234 223 225 223 209 231 219
189 184 179 175 175 172 176 165 170 170 169 170 172 170 175 175 181 177 177 184 192 195 191 186 194 201 202 211 210 213 218 216 221 223 218 204 237 298 346 316 163 94 122 121 182 172 182 157 189 223 208 215 221 226 262 288 285 314 357 13 78 84 326 124 154 128 148 183 203 216 218 212 227 149 218 234 235 227 249 255 233 233 230 221 227
276 197 177 176 170 172 172 165 166 167 164 166 171 168 170 174 182 173 175 185 194 194 191 193 201 200 204 209 208 212 219 214 218 212 190 173 332 1 328 314 162 102 92 91 64 19 76 68 119 168 201 214 198 225 202 266 307 321 308 299 270 184 200 211 147 133 162 193 201 199 201 210 200 190 201 217 236 252 241 246 266 216 232 232 222
297 281 180 177 166 170 172 166 166 166 160 160 164 169 170 175 183 178 173 188 191 193 196 200 195 204 211 207 207 208 213 210 210 204 174 112 63 3 324 338 302 125 99 75 57 99 120 53 10 132 137 81 44 207 107 58 317 310 311 310 291 261 242 175 157 180 184 191 197 169 195 201 193 196 209 215 206 231 247 230 222 210 233 233 225
188 282 220 181 172 172 166 171 167 163 164 162 168 175 176 180 188 186 186 188 191 192 196 200 195 203 208 208 205 205 205 201 199 197 199 185 141 277 322 333 333 102 113 117 136 174 199 175 215 122 142 132 260 217 135 121 356 321 299 299 311 254 251 223 197 194 201 191 181 173 188 170 187 186 203 197 198 222 229 229 226 234 237 217 234
158 222 230 186 178 171 172 172 164 167 170 172 171 176 179 181 178 187 184 188 190 187 199 200 197 203 201 201 202 204 200 195 194 191 196 178 190 225 289 275 326 104 116 137 162 185 328 322 28 18 89 163 231 188 186 153 355 218 347 335 328 319 270 206 232 233 209 171 165 161 162 162 161 182 199 189 200 218 228 226 220 220 229 215 223
171 196 211 179 177 177 176 168 169 169 172 173 169 173 166 176 159 179 181 185 195 190 183 184 182 193 197 196 196 194 195 194 188 190 189 197 197 196 226 251 240 213 79 11 11 314 311 297 304 242 25 169 204 208 196 183 175 112 123 18 322 4 329 354 308 214 239 178 139 120 132 127 133 166 180 155 213 220 222 216 207 203 213 218 222
185 194 188 180 177 178 173 171 172 171 170 176 174 170 159 163 142 159 176 175 181 188 201 161 157 164 191 194 189 186 192 192 189 186 190 198 204 211 227 241 256 246 185 206 268 271 291 296 291 261 166 210 266 259 194 211 174 126 342 165 250 62 332 318 317 296 296 90 121 132 147 166 163 150 150 169 182 197 212 216 222 207 209 215 218
196 193 178 174 178 175 174 172 171 172 171 172 167 157 148 151 135 98 159 190 184 190 197 218 154 176 177 182 198 193 192 192 184 183 184 191 204 218 225 226 227 240 203 197 205 230 241 251 254 264 204 201 242 250 239 193 224 221 161 72 343 13 238 257 341 297 8 79 106 156 177 164 186 149 153 179 186 202 206 217 217 210 216 211 213
193 188 177 171 168 171 170 171 170 170 171 170 161 154 165 164 169 146 171 190 197 199 201 210 175 178 185 190 194 197 193 187 184 182 183 179 202 221 225 224 211 217 191 205 226 258 277 269 261 251 259 228 201 186 244 202 216 232 234 206 171 208 273 275 52 305 320 39 155 204 206 187 190 156 150 160 182 216 224 206 182 182 183 212 225
195 182 174 169 165 165 168 169 170 171 171 169 163 155 162 176 188 182 182 188 192 215 211 208 169 193 182 181 191 192 194 190 190 184 183 189 195 212 219 221 212 194 195 186 221 229 241 250 236 178 225 172 133 155 207 227 235 240 223 240 254 242 151 113 253 21 338 317 288 244 270 204 186 178 174 172 182 185 210 207 216 202 189 202 218
186 181 171 166 165 165 166 169 169 170 174 169 170 166 169 184 192 192 182 190 194 205 211 216 168 183 180 191 189 195 197 197 190 191 191 195 199 204 208 216 221 222 198 208 228 247 255 270 235 215 181 182 153 148 238 229 193 280 253 256 255 163 140 99 138 171 200 270 308 308 244 224 195 212 191 178 182 189 196 215 225 237 223 209 211
168 177 170 166 164 165 166 166 168 170 174 174 174 176 174 184 191 186 178 194 196 204 205 209 153 181 185 196 195 195 193 199 194 191 197 203 202 203 199 200 204 216 225 226 238 257 260 257 255 250 209 201 180 174 145 251 221 245 326 327 4 290 53 70 58 60 129 176 291 308 303 318 266 246 189 168 170 189 209 210 225 226 213 216 208
177 169 162 156 159 161 165 166 170 171 173 177 178 182 180 178 187 188 175 181 192 203 185 163 138 150 171 185 187 190 193 201 201 196 201 205 201 198 193 193 196 205 216 229 246 263 264 243 221 213 216 197 263 153 186 232 245 273 231 245 275 13 2 35 86 76 27 48 247 285 288 314 331 293 349 318 273 223 209 219 247 267 241 224 215
160 168 162 157 159 161 165 169 172 171 174 178 178 181 182 178 186 185 179 178 173 169 163 158 139 131 144 164 174 187 189 190 183 193 200 186 195 199 200 201 199 200 207 227 240 242 244 236 217 176 168 179 216 203 283 273 272 289 297 237 229 211 224 234 208 200 153 177 349 282 276 250 251 308 303 292 254 254 260 251 244 251 249 242 236